sat.trackr.live / text

‹ back to catalog

EUTELSAT 117 WEST B (W*)

NORAD 41589 · 2016-038B

PAYLOAD ACTIVE UNKNOWN

§ Identity

Operator
Country
EUTE
Launch date
2016-06-15
Launch site
AFETR
Launch vehicle
Mass (kg)
RCS (m²)
0.08

Purposes: comms, nav

External: N2YO · Heavens-Above · Gunter

§ Orbital elements

Epoch: 2026-05-24T22:03:00.063072Z

Period
1,436.11 min
Inclination
0.0091°
Eccentricity
0.0000051
Mean motion
1.00270666 rev/d
Perigee alt
35,786.7 km
Apogee alt
35,787.1 km
Semi-major
42,165.0 km
B*
0.0000e+0
RAAN
148.4920°
Arg perigee
259.1369°
Mean anomaly
48.6439°
Rev number
3,643

§ Raw data

EUTELSAT 117 WEST B (W*)1 41589U 16038B   26144.91875073 -.00000015  00000+0  00000+0 0  99972 41589   0.0091 148.4920 0000051 259.1369  48.6439  1.00270666 36436

JSON: /api/v1/satellites/41589 · /tle

For live sub-satellite position, see the globe view (requires WebGL).

§ Visibility from observer

Set your observer location to see the next 7 days of passes ≥ 10°. The values pass through the URL so the page stays shareable.

No JS? Fill the form by hand. The geolocation button needs JavaScript.